Regional Weather Roundup
Issued by NWS

Home | Current Version | Previous Version | Text Only | Print | Product List | Glossary On
Versions: 1 2 3 4 5 6 7 8 9 10 11 12 13 14 15 16 17 18 19 20 21 22 23 24 25 26 27 28 29 30 31 32 33 34 35 36 37 38 39 40 41 42 43 44 45 46 47 48 49 50
000
ASUS43 KOAX 241610
RWRNE

WEATHER ROUNDUP FOR NEBRASKA
NATIONAL WEATHER SERVICE OMAHA NE
1100 AM CDT THU MAY 24 2018

NOTES: SATELLITE DATA IS BEING USED TO AUGMENT CLOUD COVER ABOVE
       12000 FEET.
       "FAIR" INDICATES FEW OR NO CLOUDS BELOW 12,000 FEET WITH NO
       SIGNIFICANT WEATHER AND/OR OBSTRUCTIONS TO VISIBILITY.


NEZ001>004-019>022-054>056-241700-
NEBRASKA PANHANDLE

CITY           SKY/WX    TMP DP  RH WIND       PRES   REMARKS
SCOTTSBLUFF    SUNNY     72  52  49 W10       30.04F
ALLIANCE       SUNNY     73  53  49 W9        30.02F
CHADRON        SUNNY     74  53  48 SW15      29.97S
GORDON         FAIR      73  58  60 SW16      29.98F
KIMBALL        SUNNY     73  45  36 NW12      30.09S
SIDNEY         SUNNY     75  53  46 NW10      30.06S
$$

NEZ057>060-069>072-079>082-241700-
SOUTHWEST NEBRASKA

CITY           SKY/WX    TMP DP  RH WIND       PRES   REMARKS
NORTH PLATTE   MOSUNNY   74  61  63 VRB3      29.98S
IMPERIAL       MOSUNNY   74  56  53 VRB5      29.99S
LEXINGTON      SUNNY     74  62  65 S13       29.98S
MCCOOK         MOSUNNY   73  60  63 SW9       29.97F
OGALLALA       MOSUNNY   69  59  71 CALM      30.00S
$$

NEZ005>010-023>029-035>040-094-241700-
NORTH CENTRAL NEBRASKA

CITY           SKY/WX    TMP DP  RH WIND       PRES   REMARKS
VALENTINE      SUNNY     76  61  59 SW14G22   29.95F
AINSWORTH      MOSUNNY   73  64  73 S16       29.96S
BROKEN BOW     SUNNY     74  62  66 SE14G22   29.98F
O`NEILL        SUNNY     78  64  61 SE13G21   29.95F
ORD            SUNNY     76  64  66 SE12      29.96S
THEDFORD       MOSUNNY   73  61  65 S9        29.98S
$$

NEZ041-046>049-061>064-073>077-083>087-241700-
SOUTH CENTRAL NEBRASKA

CITY           SKY/WX    TMP DP  RH WIND       PRES   REMARKS
GRAND ISLAND   SUNNY     78  62  57 S13       30.00F
AURORA         MOSUNNY   78  60  53 S15       30.00F
HASTINGS       MOSUNNY   76  61  59 S12G22    30.01F
HEBRON         SUNNY     82  59  44 S6        30.03S
HOLDREGE       SUNNY     75  60  59 SE12      29.99F
KEARNEY        SUNNY     76  61  59 S15       30.00F
YORK           MOSUNNY   79  63  57 S14       30.02S
$$

NEZ011>018-030>034-042>045-241700-
NORTHEAST NEBRASKA

CITY           SKY/WX    TMP DP  RH WIND       PRES   REMARKS
NORFOLK        SUNNY     78  65  63 SE14      29.96F
ALBION         SUNNY     78  66  68 SE15      29.98F
BLAIR          CLOUDY    78  67  68 S8        30.04R
COLUMBUS       MOSUNNY   80  63  55 S14       30.01F
FREMONT        PTSUNNY   80  66  63 SE9       30.03F
TEKAMAH        CLOUDY    78  68  71 S13       30.01F
WAYNE          SUNNY     78  71  77 S14       29.98F
$$

NEZ050>053-065>068-078-088>093-241700-
SOUTHEAST NEBRASKA

CITY           SKY/WX    TMP DP  RH WIND       PRES   REMARKS
LINCOLN        SUNNY     81  65  58 S10       30.02F
OMAHA EPPLEY   CLOUDY    78  67  68 S10       30.03F
BEATRICE       SUNNY     82  64  53 S6        30.03F
FALLS CITY     SUNNY     81  68  64 S12G21    30.04F
NEBRASKA CITY  MOSUNNY   81  67  62 S9        30.05S
PLATTSMOUTH    MOSUNNY   79  68  68 SE9       30.04F
$$

NEZ044-045-051>053-067-241700-
OMAHA AREA

CITY           SKY/WX    TMP DP  RH WIND       PRES   REMARKS
OMAHA EPPLEY   CLOUDY    78  67  68 S10       30.03F
BLAIR          CLOUDY    78  67  68 S8        30.04R
FREMONT        PTSUNNY   80  66  63 SE9       30.03F
MILLARD        MOSUNNY   80  68  67 S6        30.03S
OFFUTT AFB     PTSUNNY   78  68  70 SE12G17   30.02F
PLATTSMOUTH    MOSUNNY   79  68  68 SE9       30.04F
WAHOO          FAIR      81  61  51 SE7       30.02F
$$




USA.gov is the U.S. government's official web portal to all federal, state and local government web resources and services.